Probability
0 0 0 0 0 0 0 0 0 0 0 0 0 0 0 0 0 0 0 0 0 0 0 0 0 0 0 0 0 0 0 0 0 0 0 0 0 0 0 0 0 0 0
0 0 0 0 0 0 0 0 0 0 0 0 0 0 0 0 0 0 0 0 0 0 0 0 0 0 0 0 0 0 0 0 0 0 0 0 0 0 0 0 0 0 0
0 0 0 0 0 0 0 0 0 0 0 0 0 0 0 0 0 0 0 0 0 0 0 0 0 0 0 0 0 0 0 0 0 0 0 0 0 0 0 0 0 0 0
0 0 0 0 0 0 0 0 0 0 0 0 0 0 0 0 0 0 0 0 0 0 0 0 0 0 0 0 0 0 0 0 0 0 0 0 0 0 0 0 0 0 0
0 0 0 0 0 0 0 0 0 0 0 0 0 0 0 0 0 0 0 0 0 0 0 0 0 0 0 0 0 0 0 0 0 0 0 0 0 0 0 0 0 0 0
0 0 0 0 0 0 0 0 0 0 0 0 0 0 0 0 0 0 0 0 0 0 0 0 0 0 0 0 0 0 0 0 0 0 0 0 0 0 0 0 0 0 0
0 0 0 0 0 0 0 0 0 0 0 0 0 0 0 0 0 0 0 0 0 0 0 0 0 0 0 0 0 0 0 0 0 0 0 0 0 0 0 0 0 0 0
0 0 0 0 0 0 0 0 0 0 0 0 0 0 0 0 0 0 0 0 0 0 0 0 0 0 0 0 0 0 0 0 0 0 0 0 0 0 0 0 0 0 0
0 0 0 0 0 0 0 0 0 0 0 0 0 0 0 0 0 0 0 0 0 0 0 0 0 0 0 0 0 0 0 0 0 0 0 0 0 0 0 0 0 0 0
0 0 0 0 0 0 0 0 0 0 0 0 0 0 0 0 0 0 0 0 0 0 0 0 0 0 0 0 0 0 0 0 0 0 0 0 0 0 0 0 0 0 0
0 0 0 0 0 0 0 0 0 0 0 0 0 0 0 0 0 0 0 0 0 0 0 0 0 0 0 0 0 0 0 0 0 0 0 0 0 0 0 0 0 0 0
0 0 0 0 0 0 0 0 0 0 0 0 0 0 0 0 0 0 0 0 0 0 0 0 0 0 0 0 0 0 0 0 0 0 0 0 0 0 0 0 0 0 0
0 0 0 0 0 0 0 0 0 0 0 0 0 0 0 0 0 0 0 0 0 0 0 0 0 0 0 0 0 0 0 0 0 0 0 0 0 0 0 0 0 0 0
0 0 0 0 0 0 0 0 0 0 0 0 0 0 0 0 0 0 0 0 0 0 0 0 0 0 0 0 0 0 0 0 0 0 0 0 0 0 0 0 0 0 0
0 0 0 0 0 0 0 0 0 0 0 0 0 0 0 0 0 0 0 0 0 0 0 0 0 0 0 0 0 0 0 0 0 0 0 0 0 0 0 0 0 0 0
0 0 0 0 0 0 0 0 0 0 0 0 0 0 0 0 0 0 0 0 0 0 0 0 0 0 0 0 0 0 0 0 0 0 0 0 0 0 0 0 0 0 0
0 0 0 0 0 0 0 0 0 0 0 0 0 0 0 0 0 0 0 0 0 0 0 0 0 0 0 0 0 0 0 0 0 0 0 0 0 0 0 0 0 0 0
0 0 0 0 0 0 0 0 0 0 0 0 0 0 0 0 0 0 0 0 0 0 0 0 0 0 0 0 0 0 0 0 0 0 0 0 0 0 0 0 0 0 0
0 0 0 0 0 0 0 0 0 0 0 0 0 0 0 0 0 0 0 0 0 0 0 0 0 0 0 0 0 0 0 0 0 0 0 0 0 0 0 0 0 0 0
0 0 0 0 0 0 0 0 0 0 0 0 0 0 0 0 0 0 0 0 0 0 0 0 0 0 0 0 0 0 0 0 0 0 0 0 0 0 0 0 0 0 0
0 0 0 0 0 0 0 0 0 0 0 0 0 0 0 0 0 0 0 0 0 0 0 0 0 0 0 0 0 0 0 0 0 0 0 0 0 0 0 0 0 0 0
0 0 0 0 0 0 0 0 0 0 0 0 0 0 0 0 0 0 0 0 0 0 0 0 0 0 0 0 0 0 0 0 0 0 0 0 0 0 0 0 0 0 0
0 0 0 0 0 0 0 0 0 0 0 0 0 0 0 0 0 0 0 0 0 0 0 0 0 0 0 0 0 0 0 0 0 0 0 0 0 0 0 0 0 0 0
0 0 0 0 0 0 0 0 0 0 0 0 0 0 0 0 0 0 0 0 0 0 0 0 0 0 0 0 0 0 0 0 0 0 0 0 0 0 0 0 0 0 0
0 0 0 0 0 0 0 0 0 0 0 0 0 0 0 0 0 0 0 0 0 0 0 0 0 0 0 0 0 0 0 0 0 0 0 0 0 0 0 0 0 0 0
0 0 0 0 0 0 0 0 0 0 0 0 0 0 0 0 0 0 0 0 0 0 0 0 0 0 0 0 0 0 0 0 0 0 0 0 0 0 0 0 0 0 0
Height
5672 5674 5678 5680 5683 5685 5688 5691 5694 5698 5701 5704 5708 5711 5714 5717 5720 5723 5726 5729 5732 5735 5739 5742 5746 5749 5753 5755 5758 5761 5764 5766 5768 5771 5773 5774 5777 5779 5781 5782 5784 5786 5787
5660 5663 5665 5668 5671 5674 5676 5679 5682 5686 5689 5693 5696 5699 5702 5705 5708 5712 5714 5718 5721 5724 5728 5732 5735 5739 5743 5745 5748 5751 5754 5756 5759 5761 5763 5765 5768 5770 5772 5774 5775 5777 5778
5648 5650 5653 5656 5658 5662 5665 5668 5670 5674 5677 5680 5683 5686 5689 5693 5696 5700 5703 5706 5709 5713 5716 5720 5724 5728 5732 5735 5738 5741 5744 5746 5749 5751 5754 5756 5758 5760 5763 5764 5766 5768 5769
5635 5638 5640 5643 5646 5649 5652 5655 5658 5661 5664 5667 5670 5674 5677 5681 5685 5688 5691 5694 5698 5701 5704 5708 5712 5716 5720 5724 5727 5730 5733 5736 5738 5740 5743 5746 5749 5751 5753 5755 5756 5758 5759
5623 5625 5627 5630 5633 5636 5639 5642 5645 5648 5651 5654 5657 5661 5664 5668 5671 5675 5678 5681 5685 5688 5692 5696 5700 5704 5708 5712 5715 5718 5721 5724 5727 5730 5732 5734 5737 5739 5742 5744 5746 5747 5749
5611 5613 5615 5617 5620 5622 5625 5628 5631 5634 5637 5640 5643 5647 5651 5654 5658 5661 5665 5668 5671 5675 5679 5683 5687 5691 5695 5699 5703 5706 5709 5712 5715 5718 5720 5723 5725 5728 5730 5733 5735 5737 5738
5599 5601 5602 5604 5606 5609 5612 5615 5618 5621 5623 5626 5630 5633 5637 5640 5644 5647 5651 5654 5658 5662 5666 5670 5674 5678 5682 5686 5689 5693 5696 5699 5702 5705 5708 5711 5713 5716 5718 5721 5723 5725 5727
5588 5589 5590 5591 5593 5596 5598 5601 5604 5607 5610 5612 5616 5619 5622 5626 5629 5633 5636 5640 5644 5648 5652 5656 5661 5665 5669 5673 5676 5680 5683 5686 5689 5692 5695 5698 5701 5703 5705 5708 5710 5712 5715
5576 5577 5578 5579 5581 5582 5585 5587 5590 5593 5596 5598 5602 5605 5608 5611 5615 5618 5622 5626 5630 5634 5638 5642 5647 5651 5655 5659 5663 5666 5669 5672 5676 5679 5682 5685 5687 5690 5692 5695 5697 5700 5702
5565 5565 5566 5567 5569 5570 5572 5574 5577 5579 5582 5584 5587 5590 5593 5597 5600 5604 5607 5611 5616 5620 5624 5628 5633 5637 5641 5645 5649 5652 5655 5658 5662 5665 5668 5671 5673 5676 5678 5681 5683 5685 5688
5554 5554 5555 5556 5557 5558 5560 5562 5564 5566 5569 5571 5574 5576 5580 5583 5586 5589 5593 5597 5601 5605 5610 5615 5619 5623 5627 5631 5634 5638 5641 5644 5647 5650 5653 5656 5659 5661 5664 5666 5668 5671 5673
5543 5543 5544 5544 5545 5547 5548 5550 5551 5553 5556 5558 5560 5563 5566 5569 5572 5575 5579 5583 5587 5591 5596 5601 5605 5609 5613 5616 5620 5623 5627 5630 5633 5635 5638 5641 5643 5646 5648 5651 5653 5656 5658
5532 5532 5533 5533 5534 5535 5536 5537 5539 5540 5542 5545 5547 5550 5552 5555 5559 5562 5565 5569 5573 5578 5582 5587 5591 5595 5599 5602 5605 5609 5612 5615 5618 5620 5623 5626 5628 5631 5633 5635 5638 5640 5643
5521 5521 5522 5522 5523 5523 5524 5525 5526 5527 5529 5532 5534 5537 5540 5543 5546 5549 5552 5556 5560 5565 5569 5574 5578 5581 5584 5588 5591 5594 5597 5600 5603 5605 5607 5610 5613 5615 5618 5620 5622 5624 5627
5511 5511 5511 5511 5512 5512 5512 5513 5514 5515 5517 5519 5522 5524 5527 5530 5533 5536 5540 5543 5548 5552 5556 5560 5563 5567 5570 5573 5576 5579 5582 5585 5587 5589 5592 5594 5597 5600 5602 5604 5607 5609 5611
5500 5500 5500 5500 5500 5501 5501 5502 5503 5504 5505 5507 5510 5512 5514 5517 5521 5524 5527 5531 5535 5539 5543 5546 5550 5553 5556 5559 5561 5564 5567 5569 5571 5574 5576 5579 5581 5584 5586 5588 5590 5593 5595
5490 5489 5489 5489 5489 5489 5490 5491 5492 5493 5494 5496 5498 5500 5502 5505 5508 5511 5514 5518 5522 5526 5529 5532 5535 5538 5541 5544 5546 5548 5551 5553 5556 5558 5561 5563 5565 5567 5570 5572 5574 5577 5579
5479 5478 5478 5479 5479 5478 5479 5480 5480 5482 5483 5484 5486 5488 5490 5493 5496 5498 5501 5505 5508 5512 5515 5518 5521 5524 5526 5528 5530 5533 5535 5538 5541 5543 5545 5548 5550 5552 5554 5557 5559 5561 5564
5469 5468 5467 5467 5468 5468 5468 5469 5469 5470 5471 5473 5475 5476 5478 5481 5483 5486 5489 5492 5495 5498 5501 5504 5507 5509 5512 5514 5515 5518 5520 5523 5525 5528 5530 5532 5534 5537 5539 5541 5544 5546 5548
5459 5457 5457 5456 5456 5457 5457 5458 5458 5459 5460 5461 5463 5465 5467 5469 5471 5474 5477 5479 5482 5485 5487 5490 5493 5495 5498 5499 5501 5503 5505 5508 5511 5513 5515 5517 5519 5521 5523 5525 5528 5531 5533
5448 5447 5446 5445 5445 5445 5446 5447 5447 5448 5449 5450 5451 5453 5455 5457 5459 5462 5464 5467 5469 5472 5474 5477 5479 5482 5483 5485 5486 5488 5490 5493 5495 5497 5500 5502 5504 5506 5508 5510 5513 5515 5517
5438 5437 5436 5435 5435 5434 5435 5435 5436 5437 5438 5439 5440 5442 5443 5445 5447 5449 5452 5454 5456 5459 5461 5463 5465 5467 5469 5471 5473 5474 5476 5478 5480 5483 5485 5487 5489 5491 5493 5495 5497 5499 5501
5429 5427 5426 5425 5424 5424 5424 5424 5425 5426 5426 5427 5428 5430 5431 5433 5435 5437 5439 5441 5443 5445 5448 5450 5452 5454 5456 5457 5459 5460 5462 5463 5465 5468 5470 5472 5473 5476 5478 5480 5481 5483 5485
5419 5418 5416 5415 5414 5413 5413 5413 5413 5414 5415 5416 5417 5418 5419 5421 5423 5425 5427 5429 5431 5433 5435 5437 5439 5440 5442 5443 5445 5446 5448 5450 5451 5453 5455 5456 5459 5461 5463 5464 5466 5468 5469
5409 5408 5406 5405 5404 5403 5403 5402 5403 5403 5404 5405 5406 5407 5408 5409 5411 5413 5415 5417 5419 5420 5422 5424 5425 5427 5429 5430 5432 5433 5435 5436 5438 5439 5441 5443 5445 5446 5448 5450 5451 5453 5454
5399 5398 5397 5395 5394 5393 5393 5393 5393 5393 5393 5394 5395 5395 5396 5398 5399 5401 5402 5404 5406 5407 5409 5411 5412 5414 5415 5416 5418 5420 5421 5422 5424 5426 5427 5429 5431 5432 5434 5436 5437 5439 5440
Wind_Speed
45 44 43 44 45 45 46 47 47 47 47 47 47 46 46 46 45 44 45 46 45 45 45 44 43 43 42 42 42 42 42 41 41 41 40 40 38 38 37 37 36 36 35
45 45 45 45 45 46 46 47 48 49 49 49 48 48 47 47 47 47 46 46 46 46 46 46 45 44 44 43 43 43 43 43 43 42 42 41 41 40 39 39 39 38 38
45 46 46 46 46 47 47 47 48 50 50 50 50 50 49 49 50 50 49 48 48 48 49 48 46 46 46 45 45 44 44 44 44 44 43 43 42 42 41 41 41 40 40
44 45 46 46 47 47 48 49 49 50 51 52 52 52 51 50 50 50 50 51 50 51 50 50 49 48 47 47 47 47 46 46 45 45 45 45 44 44 44 43 43 43 42
43 44 46 46 47 47 49 50 50 50 52 53 53 52 52 52 52 52 52 52 53 53 53 52 52 51 48 48 49 49 49 48 47 46 46 46 45 45 45 45 45 45 45
41 42 44 46 47 47 48 50 50 50 51 53 54 54 54 53 53 54 54 54 54 55 55 54 53 52 51 51 51 51 51 50 49 48 48 47 47 47 47 47 46 46 46
40 41 42 44 47 47 48 50 51 50 51 53 54 55 55 55 55 54 55 56 56 56 56 55 55 54 53 53 52 51 52 51 51 50 50 49 49 49 49 49 49 47 47
40 40 41 43 45 47 48 50 51 51 51 52 54 54 55 55 55 55 55 55 56 56 56 56 56 55 55 54 53 52 53 53 52 52 52 51 51 51 51 51 51 50 49
39 40 41 42 43 45 47 48 49 50 50 51 52 53 52 53 54 55 55 55 55 55 55 57 57 56 55 55 54 55 55 53 53 53 52 52 52 53 53 53 52 52 51
36 38 39 41 42 43 44 47 47 48 49 50 51 52 53 52 53 54 54 55 55 55 55 56 56 55 56 56 55 55 55 55 54 54 54 54 54 54 55 55 54 54 53
35 36 37 39 40 41 43 44 46 47 48 49 50 50 52 53 52 53 54 54 55 55 56 55 55 55 55 56 56 56 56 56 55 55 55 55 55 55 56 56 56 56 56
33 34 35 37 39 40 41 42 44 46 47 48 48 49 50 51 52 52 53 53 54 54 54 54 55 55 55 55 56 56 56 57 56 56 56 57 56 56 56 57 57 57 57
34 34 34 36 37 39 40 41 42 43 45 47 48 48 48 49 50 51 52 52 52 52 52 53 54 54 55 55 55 55 55 55 55 56 57 57 57 57 56 57 58 59 58
34 34 35 35 36 38 39 41 41 42 43 45 47 47 47 48 48 50 51 51 51 52 52 53 53 54 55 55 55 55 55 55 55 55 56 57 57 57 56 56 57 58 59
34 35 35 35 36 37 38 39 40 40 41 43 45 46 46 47 48 48 50 51 51 51 51 52 52 53 54 54 54 54 55 55 56 56 57 57 57 57 57 56 56 58 58
34 35 35 36 36 37 37 38 38 39 40 42 44 45 46 46 47 48 49 50 51 52 52 52 53 53 54 55 56 56 56 55 55 56 56 56 57 57 56 56 55 56 56
35 36 36 36 35 36 37 37 38 39 39 39 41 44 46 46 47 48 49 50 51 52 52 52 52 53 54 55 55 56 55 55 54 54 54 54 55 55 56 56 55 55 55
34 35 36 36 36 35 36 37 37 38 39 39 40 42 44 45 46 47 48 49 50 51 51 52 52 52 53 54 54 54 55 54 54 53 53 53 54 55 56 56 55 55 55
32 33 35 36 36 36 36 36 37 38 39 39 40 40 42 43 44 45 46 47 47 49 49 49 50 51 52 52 54 55 55 55 55 54 54 53 53 54 55 56 56 55 56
32 32 33 34 36 36 36 36 37 37 38 39 40 40 41 42 42 43 44 44 45 47 48 49 49 50 50 51 53 54 55 54 54 54 54 54 54 54 54 55 55 55 55
32 32 32 33 34 35 36 36 36 37 38 39 39 40 42 42 41 42 43 43 44 45 46 47 48 49 50 51 52 52 52 52 53 53 54 54 54 54 54 55 55 55 55
31 31 31 32 33 34 35 36 35 36 37 38 38 39 40 42 42 42 43 43 44 44 44 45 46 47 48 49 50 50 50 51 51 51 52 53 53 53 53 53 54 54 54
29 30 30 31 32 33 33 35 35 36 36 37 38 38 39 41 42 42 43 43 43 43 43 44 44 45 46 47 49 49 49 50 50 50 50 51 52 52 52 52 53 54 54
29 29 30 30 30 31 32 33 34 35 36 36 37 38 38 40 40 41 42 43 43 43 43 44 44 44 45 46 47 48 49 49 49 49 49 50 50 50 50 50 51 51 53
30 30 30 30 29 30 30 31 31 32 34 35 35 36 38 38 39 40 40 41 42 43 43 44 44 44 45 45 46 47 47 47 47 47 47 48 49 49 50 49 49 50 50
31 31 31 30 29 28 28 29 29 30 30 32 33 34 35 37 38 38 39 40 41 41 42 42 42 43 43 44 45 45 45 45 46 46 46 46 47 48 49 49 49 49 48
Wind_Direction
251 250 249 249 249 248 247 246 246 246 246 246 246 246 246 245 246 246 246 245 245 245 245 246 247 247 248 248 246 246 248 248 249 250 250 250 250 250 251 252 253 253 253
251 251 250 249 248 247 247 247 247 246 247 247 246 246 245 245 246 246 246 246 245 245 245 246 245 247 247 247 247 248 249 249 250 251 251 251 251 252 252 254 254 254 254
252 252 251 249 248 246 247 247 248 247 246 246 246 247 247 246 246 246 246 246 245 246 245 245 245 247 247 247 249 249 250 251 253 253 252 252 252 253 254 255 255 255 254
253 252 251 249 248 247 247 247 247 248 247 247 247 247 247 247 248 248 248 246 246 246 246 246 246 246 246 248 250 250 251 252 253 252 252 252 253 253 254 254 254 254 254
254 252 251 250 248 247 247 247 247 248 248 248 248 247 247 247 248 247 248 247 246 246 247 246 246 245 246 248 249 250 250 252 253 253 253 253 253 253 254 254 254 254 255
255 254 253 251 249 248 247 247 247 248 248 248 247 247 247 247 248 247 247 247 246 246 247 246 244 245 247 248 249 249 249 250 251 252 253 253 253 254 254 254 255 255 256
256 255 254 252 249 249 248 247 247 247 248 248 247 247 247 247 248 248 247 246 246 246 246 246 245 245 246 248 248 248 248 249 251 252 252 252 253 254 254 255 255 255 255
258 257 255 253 252 250 250 248 248 247 247 247 247 247 246 246 247 247 246 245 246 246 246 246 244 245 246 247 247 247 248 248 250 251 252 252 253 254 255 256 256 256 256
260 259 258 256 254 253 251 250 248 247 247 246 247 246 246 245 246 246 246 245 244 244 244 245 244 244 246 247 248 248 248 249 250 250 251 252 253 254 255 256 256 257 256
262 260 259 258 256 254 253 250 249 247 247 247 246 246 245 245 246 246 246 245 244 243 243 243 244 245 246 246 247 248 248 249 250 251 252 253 254 254 255 255 256 256 256
263 261 260 258 257 256 254 253 251 249 248 248 248 247 246 246 246 247 246 245 244 244 244 243 244 245 246 247 248 249 250 250 251 252 253 254 255 255 256 256 257 257 257
263 263 261 259 257 256 255 255 254 252 250 249 248 248 247 247 246 247 246 245 244 243 243 243 244 246 246 247 248 249 251 251 252 253 253 254 255 256 256 257 256 256 256
263 263 262 260 258 256 256 255 254 253 251 249 249 249 248 247 246 246 246 245 244 243 243 244 245 246 247 248 248 249 251 252 253 254 254 255 256 256 256 257 257 256 255
263 263 262 261 260 259 257 255 254 254 252 249 249 249 248 247 247 246 246 245 244 243 243 246 247 247 248 249 249 250 251 252 253 254 255 255 256 256 257 257 257 256 255
264 262 261 261 261 261 259 257 255 254 253 250 248 248 248 248 247 246 246 244 244 244 245 246 248 248 249 250 251 252 252 253 254 255 255 255 255 256 256 257 257 257 256
267 265 263 262 262 262 259 256 255 255 253 251 250 248 248 247 246 245 245 245 245 245 246 247 247 249 250 251 253 253 254 254 255 256 256 255 255 255 256 257 257 256 256
269 267 265 264 264 262 259 257 255 255 255 253 251 250 248 247 246 246 246 246 246 246 247 248 248 250 251 252 252 252 253 253 254 255 256 256 256 256 256 256 256 257 256
272 269 265 264 264 263 261 258 256 256 255 254 253 253 251 249 248 248 247 246 246 246 248 248 249 250 252 252 253 252 252 253 253 254 255 256 256 255 255 255 257 257 257
277 273 268 265 264 264 263 260 259 258 256 255 254 254 252 251 250 249 248 247 247 247 247 250 250 251 251 252 253 253 253 253 254 254 255 256 256 255 255 255 256 256 257
278 275 270 266 264 264 263 261 260 259 258 257 255 254 253 252 252 251 249 248 248 248 248 250 251 252 252 252 253 254 255 255 254 254 254 255 254 255 255 255 255 256 257
279 276 273 268 266 265 263 262 261 260 259 258 257 255 254 253 253 252 251 250 250 250 250 250 251 252 252 253 254 254 255 255 255 255 254 254 254 255 255 255 256 256 257
280 277 275 272 268 267 265 263 262 261 260 258 257 256 255 254 254 253 252 252 251 252 252 252 252 252 252 253 254 254 255 255 255 255 254 254 255 255 256 256 256 257 257
281 279 278 275 271 268 267 265 262 261 261 259 258 257 256 256 255 255 254 253 253 253 253 253 253 253 254 254 254 255 255 255 255 254 254 254 255 256 257 258 259 258 258
281 281 281 279 275 271 268 267 265 262 261 261 259 258 257 256 256 256 255 254 254 254 254 254 254 255 255 255 254 254 255 255 255 254 254 254 254 255 256 257 258 259 259
280 281 282 281 277 273 270 268 267 265 262 261 261 259 258 257 255 255 255 254 254 255 255 255 256 256 255 255 254 254 254 255 255 255 255 254 254 255 256 257 258 259 260
280 281 281 280 278 275 272 270 269 267 264 262 262 262 260 258 255 255 256 256 255 256 256 257 257 257 256 255 255 254 254 255 255 255 255 255 255 255 255 255 257 258 259